Dewpoint
47 49 52 53 52 54 54 54 55 55 56 57 58 58 57 57 56 56 55 54 53 52
41 45 46 48 51 53 54 54 54 53 54 55 56 57 57 56 56 55 55 54 54 53
36 39 42 46 47 50 53 53 53 53 53 53 53 54 55 56 55 55 54 54 53 53
34 35 37 42 44 46 47 50 53 53 53 53 52 52 52 54 55 54 53 53 53 53
30 33 34 35 39 43 44 46 48 53 53 52 52 52 52 52 52 53 53 53 52 52
28 29 32 33 35 38 42 44 45 48 53 52 52 52 52 52 52 52 53 52 52 51
30 27 29 32 33 37 39 43 44 45 48 52 52 52 52 52 51 51 51 52 52 52
30 30 28 32 33 34 37 42 42 44 46 51 52 52 51 51 51 51 51 51 52 51
26 27 27 30 31 32 36 39 41 42 44 47 51 50 49 50 50 49 49 50 50 51
23 27 26 25 30 31 33 37 40 41 43 45 47 49 49 49 49 49 48 49 49 49
22 26 24 24 30 31 33 35 37 39 41 42 44 47 48 48 48 48 48 48 48 48
21 25 24 24 28 31 33 35 36 38 39 41 42 45 46 47 47 46 46 45 45 45
21 25 24 24 28 32 33 33 34 36 39 40 41 43 45 46 46 43 43 43 43 44
22 23 22 23 30 33 33 33 36 37 38 39 40 41 43 45 44 42 40 39 39 41
Lifted_Index
1 2 2 2 2 3 3 3 3 2 2 2 2 2 2 2 2 3 3 3 3 4
2 2 2 2 3 3 3 3 3 3 2 2 2 2 2 2 3 3 3 3 4 4
3 2 2 2 3 3 3 3 3 3 3 3 3 3 3 3 3 3 3 4 4 4
5 4 3 3 3 3 3 3 3 3 3 3 3 3 3 3 4 4 4 4 4 4
9 8 6 4 4 3 3 3 3 3 3 3 3 3 4 4 4 4 4 4 4 4
12 11 9 7 6 5 4 3 3 3 3 3 3 4 4 4 4 4 4 4 4 3
14 13 13 11 9 8 6 4 3 3 3 3 4 4 4 5 5 5 4 4 3 3
13 14 14 13 12 11 8 6 4 4 3 3 4 4 4 4 5 5 5 4 4 3
13 13 14 14 13 13 11 8 6 4 4 3 3 3 4 4 4 5 5 5 4 4
13 13 14 14 14 13 13 10 7 5 4 4 3 3 3 4 4 5 5 5 5 5
14 14 14 14 14 14 13 12 9 7 5 4 3 3 3 4 4 5 6 6 5 5
14 14 14 14 14 14 13 13 11 8 6 4 3 3 3 4 5 5 5 6 6 6
15 15 14 14 14 14 14 13 13 10 7 5 4 3 3 4 4 5 5 5 6 7
15 15 15 15 15 14 14 13 13 11 8 5 4 3 3 3 4 4 5 5 6 7